Terminal Aerodrome Forecast
Issued by NWS Dodge City, KS

Home | Current Version | Previous Version | Text Only | Print | Product List | Glossary On
Versions: 1 2 3 4 5 6 7 8 9 10 11 12 13 14 15 16 17 18 19 20 21 22 23 24 25 26 27
000
FTUS43 KDDC 192300 RRA
TAFDDC
TAF
KDDC 192343Z 2000/2024 17016G22KT P6SM SCT250
     FM200300 16011KT P6SM FEW120 SCT200
     FM201500 18014G20KT P6SM SKC
     FM201800 18018G26KT P6SM SKC=

USA.gov is the U.S. government's official web portal to all federal, state and local government web resources and services.